Regional Weather Roundup
Issued by NWS

Current Version | Previous Version | Text Only | Print | Product List | Glossary On
Versions: 1 2 3 4 5 6 7 8 9 10 11 12 13 14 15 16 17 18 19 20 21 22 23 24 25 26 27 28 29 30 31 32 33 34 35 36 37 38 39 40 41 42 43 44 45 46 47 48 49 50
000
ASUS43 KDTX 270610
RWRMI
MICHIGAN HOURLY REGIONAL WEATHER ROUNDUP
NATIONAL WEATHER SERVICE DETROIT/PONTIAC MI
200 AM EDT MON APR 27 2015

NOTE: "FAIR" INDICATES FEW OR NO CLOUDS BELOW 12,000 FEET WITH NO
SIGNIFICANT WEATHER AND/OR OBSTRUCTION TO VISIBILITY.

MIZ047>049-052>055-059>063-066>070-074>076-081>083-270700-
SOUTHEAST LOWER MICHIGAN

CITY           SKY/WX    TMP DP  RH WIND       PRES   REMARKS
ADRIAN         PTCLDY    42  32  67 CALM      29.96S
6HR MIN TEMP:  42; 6HR MAX TEMP:  53;

ALMA           MOCLDY    38  32  80 NW6       29.97F WCI  33
ANN ARBOR      CLEAR     34  30  85 W6        29.95S WCI  29
BAD AXE        LGT RAIN  40  35  81 N10       29.93S WCI  34
CARO           LGT RAIN  45  37  72 CALM      29.93S
DETROIT CITY   PTCLDY    41  30  65 W5        29.93S
6HR MIN TEMP:  41; 6HR MAX TEMP:  48;

DETROIT        CLEAR     40  31  70 W6        29.95S
6HR MIN TEMP:  39; 6HR MAX TEMP:  54;

FLINT          CLOUDY    42  33  70 NW8       29.95S
6HR MIN TEMP:  37; 6HR MAX TEMP:  54;

HILLSDALE      CLEAR     42  30  61 E3        29.94S
6HR MIN TEMP:  42; 6HR MAX TEMP:  54;

HOWELL         CLEAR     36  31  81 W6        29.95S WCI  31
6HR MIN TEMP:  36; 6HR MAX TEMP:  52;


CITY           SKY/WX    TMP DP  RH WIND       PRES   REMARKS
JACKSON        CLEAR     40  30  67 CALM      29.95F
6HR MIN TEMP:  39; 6HR MAX TEMP:  55;

LAMBERTVILLE   CLOUDY    43  34  70 CALM      29.95F
LANSING        CLEAR     37  31  78 NW5       29.97S WCI  33
6HR MIN TEMP:  36; 6HR MAX TEMP:  55;

LAPEER         CLOUDY    40  32  74 NW3       29.92F
MASON          CLEAR     39  31  72 CALM      29.96S
MONROE         PTCLDY    37  34  87 CALM      29.94S
PONTIAC        CLEAR     38  32  79 W5        29.92S WCI  34
6HR MIN TEMP:  37; 6HR MAX TEMP:  52;

PORT HOPE        N/A     40  36  86 N9        29.92S WCI  34
6HR MIN TEMP:  40; 6HR MAX TEMP:  44;

PORT HURON     CLOUDY    41  34  75 CALM      29.91S
TRI CITIES     CLOUDY    45  33  63 NW8       29.95F
6HR MIN TEMP:  41; 6HR MAX TEMP:  48;

MIDLAND        CLOUDY    42  33  72 NW3       29.95S
TROY           CLEAR     42  32  68 W6        29.94S
SAGINAW HB     CLOUDY    43  34  70 NW8       29.94F
$$
MIZ043>046-050>051-056>058-064>065-071>073-077>080-270700-
SOUTHWEST LOWER MICHIGAN

CITY           SKY/WX    TMP DP  RH WIND       PRES   REMARKS
BATTLE CREEK   CLEAR     42  30  62 N8        29.97S
6HR MIN TEMP:  42; 6HR MAX TEMP:  56;

BENTON HARBOR  CLEAR     39  35  86 CALM      30.00R
6HR MIN TEMP:  39; 6HR MAX TEMP:  43;

BIG RAPIDS     CLOUDY    41  30  65 N6        29.98F
6HR MIN TEMP:  40; 6HR MAX TEMP:  50;

COLDWATER      CLEAR     42  30  61 N5        29.95S
6HR MIN TEMP:  42; 6HR MAX TEMP:  54;

FREMONT        CLOUDY    40  29  66 N5        30.01S
HOLLAND        CLEAR     44  31  60 N5        30.01S
6HR MIN TEMP:  44; 6HR MAX TEMP:  53;

GRAND RAPIDS   CLEAR     41  30  65 N8        29.99S
6HR MIN TEMP:  41; 6HR MAX TEMP:  55;

IONIA          FAIR      41  31  67 N5        29.98R
KALAMAZOO      CLEAR     40  29  64 N5        29.97S
6HR MIN TEMP:  38; 6HR MAX TEMP:  54;

LUDINGTON      CLOUDY    42  30  62 N10       30.04S
MARSHALL       CLEAR     41  31  66 CALM      29.96R
MOUNT PLEASANT CLOUDY    42  32  67 NW5       29.96F
6HR MIN TEMP:  41; 6HR MAX TEMP:  53;

MUSKEGON       PTCLDY    42  30  62 N8        30.02S
6HR MIN TEMP:  42; 6HR MAX TEMP:  52;

SOUTH HAVEN    CLEAR     40  32  73 N3        30.00S
$$
MIZ016>042-270700-
NORTHERN LOWER MICHIGAN

CITY           SKY/WX    TMP DP  RH WIND       PRES   REMARKS
BEAVER ISLAND  CLOUDY    41  33  74 N6        30.04S
6HR MIN TEMP:  40; 6HR MAX TEMP:  45;

BELLAIRE       CLOUDY    42  33  72 CALM      30.01F
6HR MIN TEMP:  42; 6HR MAX TEMP:  48;

CADILLAC       CLOUDY    39  31  72 N10       29.97F WCI  32
CHARLEVOIX     CLOUDY    39  34  81 N6        30.05S WCI  35
6HR MIN TEMP:  38; 6HR MAX TEMP:  40;

FRANKFORT      MOCLDY    42  30  63 N8        30.05S
GAYLORD        CLOUDY    40  34  79 N7        29.97S
6HR MIN TEMP:  40; 6HR MAX TEMP:  45;

GRAYLING       CLOUDY    41  32  70 CALM      29.98S
HARBOR SPRINGS CLOUDY    41  33  72 CALM      30.01S
HOUGHTON LAKE  CLOUDY    41  30  65 NW8       29.96F
6HR MIN TEMP:  41; 6HR MAX TEMP:  49;

MANISTEE       PTCLDY    39  30  70 NW7       30.04S WCI  34
OSCODA         LGT RAIN  42  36  76 N14G21    29.94S
PELLSTON       CLOUDY    43  34  70 N9        30.02S
6HR MIN TEMP:  42; 6HR MAX TEMP:  46;

ROGERS CITY    CLOUDY    39  35  85 N7        30.00S WCI  34
TRAVERSE CITY  CLOUDY    42  32  67 N9        30.01F
6HR MIN TEMP:  42; 6HR MAX TEMP:  46;

$$
MIZ007>008-015-270700-
EASTERN UPPER MICHIGAN

CITY           SKY/WX    TMP DP  RH WIND       PRES   REMARKS
KINROSS        CLOUDY    37  36  93 NW9       30.01S WCI  31
6HR MIN TEMP:  37; 6HR MAX TEMP:  41;

MACKINAC ISLAN CLOUDY    39  33  78 N10       30.01S WCI  32
6HR MIN TEMP:  39; 6HR MAX TEMP:  45;

NEWBERRY       CLOUDY    39  34  80 N8G17     30.04S WCI  34
S. S. MARIE    CLOUDY    41  32  70 N6        30.00F
6HR MIN TEMP:  37; 6HR MAX TEMP:  42;

MUNISING         N/A     38  31  76 N5        30.09F WCI  34
6HR MIN TEMP:  37; 6HR MAX TEMP:  40;

$$
MIZ004>006-011>014-085-270700-
CENTRAL UPPER MICHIGAN

CITY           SKY/WX    TMP DP  RH WIND       PRES   REMARKS
MANISTIQUE     MOCLDY    39  33  79 N10       30.05S WCI  32
ESCANABA       CLOUDY    43  28  56 NW5       30.09S
6HR MIN TEMP:  39; 6HR MAX TEMP:  46;

MENOMINEE      CLEAR     41  27  56 NW6       30.09S
6HR MIN TEMP:  41; 6HR MAX TEMP:  46;

SAWYER-GWINN   MOCLDY    42  28  58 N13       30.09S
$$
MIZ001>003-009>011-084-270700-
WESTERN UPPER MICHIGAN

CITY           SKY/WX    TMP DP  RH WIND       PRES   REMARKS
IRON MOUNTAIN  CLEAR     39  27  62 N8        30.09S WCI  33
6HR MIN TEMP:  39; 6HR MAX TEMP:  52;

HOUGHTON       CLEAR     34  27  75 NW12      30.14S WCI  25
6HR MIN TEMP:  34; 6HR MAX TEMP:  48;

COPPER HARBOR    N/A     41  30  65 N9        30.14S
6HR MIN TEMP:  38; 6HR MAX TEMP:  45;

IRONWOOD       CLEAR     30  28  93 CALM      30.15S
6HR MIN TEMP:  30; 6HR MAX TEMP:  48;

$$

ABBREVIATIONS USED IN REMARKS
   TC - TEMPERATURE IN CELSIUS
  WCI - WIND CHILL INDEX
   HX - HEAT INDEX
  VSB - VISIBILITY



USA.gov is the U.S. government's official web portal to all federal, state and local government web resources and services.